When you browse on this site, cookies collect data to enhance your experience and personalize the content and advertising you see.
Visit our Privacy Policy to learn more. By continuing to use the site, you agree to this use of cookies and data.
  • In Deutschland
  • Länderverzeichnis
  • Für 7 Tage
  • Wassertemperatur
  • Satellitenkarten
  • Wetterkarte
  • Widgets
  • user-avatar
    Anmelden

    Stündliche Wetter Orange Walk

    Heute, 18 Dezember, Dienstag

    Zeit Temperatur Niederschläge Wind Luftdruck Luftfeuchtigkeit
    00:00 +20°C° 0 mm 2 m/S 762 mmHg 80%
    01:00 +20°C° 0 mm 2 m/S 761 mmHg 81%
    02:00 +19°C° 0 mm 2 m/S 761 mmHg 83%
    03:00 +19°C° 0 mm 2 m/S 761 mmHg 85%
    04:00 +19°C° 0 mm 2 m/S 761 mmHg 85%
    05:00 +19°C° 0 mm 2 m/S 761 mmHg 84%
    06:00 +19°C° 0 mm 2 m/S 761 mmHg 84%
    07:00 +20°C° 0 mm 2 m/S 761 mmHg 81%
    08:00 +22°C° 0 mm 1 m/S 761 mmHg 78%
    09:00 +23°C° 0 mm 1 m/S 761 mmHg 75%
    10:00 +25°C° 0 mm 1 m/S 761 mmHg 71%
    11:00 +27°C° 0 mm 1 m/S 760 mmHg 66%
    12:00 +28°C° 0 mm 1 m/S 760 mmHg 62%
    13:00 +28°C° 0 mm 2 m/S 759 mmHg 63%
    14:00 +28°C° 0 mm 2 m/S 759 mmHg 65%
    15:00 +29°C° 0 mm 2 m/S 758 mmHg 66%
    16:00 +27°C° 0 mm 2 m/S 758 mmHg 73%
    17:00 +26°C° 0 mm 2 m/S 758 mmHg 81%
    18:00 +24°C° 0 mm 1 m/S 758 mmHg 89%
    19:00 +23°C° 0 mm 1 m/S 759 mmHg 91%
    20:00 +23°C° 0 mm 1 m/S 759 mmHg 93%
    21:00 +22°C° 0 mm 1 m/S 759 mmHg 95%
    22:00 +22°C° 0 mm 1 m/S 759 mmHg 96%
    23:00 +22°C° 0 mm 1 m/S 759 mmHg 97%

    Morgen, 19 Dezember, Mittwoch

    Zeit Temperatur Niederschläge Wind Luftdruck Luftfeuchtigkeit
    00:00 +21°C° 0 mm 1 m/S 759 mmHg 99%
    01:00 +19°C° 0 mm 0 m/S 758 mmHg 99%
    02:00 +20°C° 0 mm 0 m/S 758 mmHg 98%
    03:00 +20°C° 0 mm 0 m/S 757 mmHg 98%
    04:00 +20°C° 0 mm 0 m/S 757 mmHg 98%
    05:00 +20°C° 0 mm 0 m/S 757 mmHg 98%
    06:00 +20°C° 0 mm 0 m/S 757 mmHg 98%
    07:00 +21°C° 0 mm 0 m/S 758 mmHg 94%
    08:00 +22°C° 0 mm 0 m/S 758 mmHg 90%
    09:00 +23°C° 0 mm 0 m/S 758 mmHg 86%
    10:00 +27°C° 0 mm 1 m/S 758 mmHg 78%
    11:00 +29°C° 0 mm 1 m/S 757 mmHg 69%
    12:00 +31°C° 0 mm 2 m/S 757 mmHg 61%
    13:00 +31°C° 0 mm 2 m/S 756 mmHg 60%
    14:00 +31°C° 0 mm 2 m/S 755 mmHg 60%
    15:00 +32°C° 0 mm 2 m/S 754 mmHg 59%
    16:00 +30°C° 0 mm 2 m/S 754 mmHg 68%
    17:00 +28°C° 0 mm 2 m/S 754 mmHg 77%
    18:00 +26°C° 0 mm 2 m/S 755 mmHg 85%
    19:00 +25°C° 0 mm 2 m/S 755 mmHg 89%
    20:00 +25°C° 0 mm 2 m/S 755 mmHg 93%
    21:00 +24°C° 0 mm 1 m/S 756 mmHg 96%
    22:00 +24°C° 0.1 mm 1 m/S 756 mmHg 97%
    23:00 +24°C° 0.1 mm 1 m/S 756 mmHg 97%

    übermorgen, 20 Dezember, Donnerstag

    Zeit Temperatur Niederschläge Wind Luftdruck Luftfeuchtigkeit
    00:00 +23°C° 0.1 mm 1 m/S 756 mmHg 98%
    01:00 +23°C° 0.4 mm 1 m/S 756 mmHg 98%
    02:00 +23°C° 0.4 mm 1 m/S 755 mmHg 98%
    03:00 +21°C° 0.4 mm 0 m/S 755 mmHg 99%
    04:00 +23°C° 0 mm 1 m/S 755 mmHg 99%
    05:00 +23°C° 0 mm 1 m/S 756 mmHg 99%
    06:00 +23°C° 0 mm 1 m/S 756 mmHg 99%
    07:00 +24°C° 0.1 mm 1 m/S 757 mmHg 93%
    08:00 +25°C° 0.1 mm 2 m/S 758 mmHg 88%
    09:00 +27°C° 0.1 mm 2 m/S 759 mmHg 83%
    10:00 +29°C° 0.3 mm 2 m/S 758 mmHg 74%
    11:00 +30°C° 0.3 mm 2 m/S 758 mmHg 65%
    12:00 +32°C° 0.3 mm 2 m/S 758 mmHg 55%
    13:00 +32°C° 0.4 mm 2 m/S 757 mmHg 56%
    14:00 +32°C° 0.4 mm 2 m/S 756 mmHg 56%
    15:00 +32°C° 0.4 mm 2 m/S 756 mmHg 56%
    16:00 +30°C° 0.1 mm 2 m/S 756 mmHg 61%
    17:00 +28°C° 0.1 mm 2 m/S 757 mmHg 66%
    18:00 +26°C° 0.1 mm 2 m/S 758 mmHg 72%
    19:00 +26°C° 0 mm 2 m/S 758 mmHg 71%
    20:00 +25°C° 0 mm 3 m/S 759 mmHg 70%
    21:00 +24°C° 0 mm 3 m/S 760 mmHg 70%
    22:00 +22°C° 0 mm 3 m/S 760 mmHg 69%
    23:00 +21°C° 0 mm 3 m/S 761 mmHg 69%

    21 Dezember, Freitag

    Zeit Temperatur Niederschläge Wind Luftdruck Luftfeuchtigkeit
    00:00 +20°C° 0 mm 3 m/S 761 mmHg 69%
    01:00 +19°C° 0 mm 3 m/S 761 mmHg 72%
    02:00 +18°C° 0 mm 3 m/S 761 mmHg 76%
    03:00 +18°C° 0 mm 2 m/S 760 mmHg 80%
    04:00 +17°C° 0 mm 2 m/S 761 mmHg 82%
    05:00 +17°C° 0 mm 2 m/S 761 mmHg 85%
    06:00 +16°C° 0 mm 2 m/S 762 mmHg 88%
    07:00 +19°C° 0 mm 2 m/S 762 mmHg 79%
    08:00 +21°C° 0 mm 3 m/S 763 mmHg 71%
    09:00 +24°C° 0 mm 3 m/S 764 mmHg 62%
    10:00 +25°C° 0 mm 3 m/S 763 mmHg 56%
    11:00 +27°C° 0 mm 3 m/S 763 mmHg 50%
    12:00 +28°C° 0 mm 3 m/S 762 mmHg 44%
    13:00 +28°C° 0 mm 2 m/S 762 mmHg 43%
    14:00 +29°C° 0 mm 2 m/S 761 mmHg 42%
    15:00 +29°C° 0 mm 2 m/S 760 mmHg 41%
    16:00 +27°C° 0 mm 2 m/S 761 mmHg 48%
    17:00 +25°C° 0 mm 1 m/S 761 mmHg 56%
    18:00 +23°C° 0 mm 1 m/S 761 mmHg 63%
    19:00 +22°C° 0 mm 1 m/S 762 mmHg 66%
    20:00 +21°C° 0 mm 1 m/S 762 mmHg 69%
    21:00 +20°C° 0 mm 1 m/S 763 mmHg 71%
    22:00 +20°C° 0 mm 1 m/S 763 mmHg 73%
    23:00 +19°C° 0 mm 1 m/S 762 mmHg 76%

    22 Dezember, Samstag

    Zeit Temperatur Niederschläge Wind Luftdruck Luftfeuchtigkeit
    00:00 +17°C° 0 mm 2 m/S 762 mmHg 78%
    01:00 +17°C° 0 mm 2 m/S 762 mmHg 81%
    02:00 +16°C° 0 mm 2 m/S 762 mmHg 83%
    03:00 +15°C° 0 mm 2 m/S 762 mmHg 86%
    04:00 +15°C° 0 mm 2 m/S 762 mmHg 88%
    05:00 +15°C° 0 mm 2 m/S 762 mmHg 90%
    06:00 +14°C° 0 mm 2 m/S 763 mmHg 92%
    07:00 +17°C° 0 mm 2 m/S 763 mmHg 83%
    08:00 +19°C° 0 mm 2 m/S 764 mmHg 74%
    09:00 +21°C° 0 mm 2 m/S 764 mmHg 65%
    10:00 +24°C° 0 mm 2 m/S 764 mmHg 59%
    11:00 +26°C° 0 mm 2 m/S 763 mmHg 54%
    12:00 +28°C° 0 mm 2 m/S 762 mmHg 48%
    13:00 +28°C° 0 mm 2 m/S 762 mmHg 50%
    14:00 +27°C° 0 mm 2 m/S 761 mmHg 52%
    15:00 +27°C° 0 mm 2 m/S 761 mmHg 54%
    16:00 +26°C° 0 mm 2 m/S 761 mmHg 62%
    17:00 +24°C° 0 mm 2 m/S 761 mmHg 69%
    18:00 +21°C° 0 mm 2 m/S 762 mmHg 76%
    19:00 +20°C° 0 mm 2 m/S 762 mmHg 79%
    20:00 +20°C° 0 mm 2 m/S 763 mmHg 81%
    21:00 +19°C° 0 mm 2 m/S 763 mmHg 84%
    22:00 +20°C° 0 mm 1 m/S 763 mmHg 85%
    23:00 +19°C° 0 mm 1 m/S 763 mmHg 86%

    23 Dezember, Sonntag

    Zeit Temperatur Niederschläge Wind Luftdruck Luftfeuchtigkeit
    00:00 +19°C° 0 mm 1 m/S 762 mmHg 87%
    01:00 +18°C° 0 mm 2 m/S 762 mmHg 88%
    02:00 +18°C° 0 mm 2 m/S 762 mmHg 89%
    03:00 +18°C° 0 mm 2 m/S 761 mmHg 90%
    04:00 +18°C° 0 mm 2 m/S 762 mmHg 90%
    05:00 +18°C° 0 mm 2 m/S 762 mmHg 90%
    06:00 +18°C° 0 mm 2 m/S 762 mmHg 90%
    07:00 +19°C° 0 mm 2 m/S 763 mmHg 83%
    08:00 +21°C° 0 mm 2 m/S 763 mmHg 76%
    09:00 +24°C° 0 mm 2 m/S 763 mmHg 69%
    10:00 +26°C° 0 mm 3 m/S 763 mmHg 65%
    11:00 +27°C° 0 mm 3 m/S 762 mmHg 61%
    12:00 +29°C° 0 mm 3 m/S 762 mmHg 56%
    13:00 +28°C° 0 mm 3 m/S 761 mmHg 58%
    14:00 +28°C° 0 mm 3 m/S 761 mmHg 60%
    15:00 +28°C° 0 mm 3 m/S 760 mmHg 62%
    16:00 +27°C° 0 mm 3 m/S 761 mmHg 67%
    17:00 +26°C° 0 mm 2 m/S 761 mmHg 71%
    18:00 +25°C° 0 mm 2 m/S 761 mmHg 76%
    19:00 +24°C° 0 mm 2 m/S 762 mmHg 79%
    20:00 +23°C° 0 mm 2 m/S 762 mmHg 83%
    21:00 +22°C° 0 mm 3 m/S 762 mmHg 86%
    22:00 +22°C° 0 mm 3 m/S 762 mmHg 86%
    23:00 +21°C° 0 mm 2 m/S 762 mmHg 87%
    Mehr zeigen